Fort Myers, FL

12:23 PM EDT on September 29, 2016 (GMT -0400)
Page

Weather History for KFMY - May, 2013

Change the Weather History Date:

Sunday, May 26, 2013

  Actual Average Record
Temperature  
Mean Temperature 78 °F 81 °F  
Max Temperature 89 °F 91 °F 99 °F (1953)
Min Temperature 66 °F 71 °F 60 °F (1979)
Degree Days  
Heating Degree Days 0 0  
Month to date heating degree days 0 0  
Since 1 July heating degree days 201 287  
Cooling Degree Days 13 16  
Month to date cooling degree days 319 355  
Year to date cooling degree days 1065 985  
Growing Degree Days 27 (Base 50)    
Moisture  
Dew Point 62 °F    
Average Humidity 61    
Maximum Humidity 87    
Minimum Humidity 36    
Precipitation  
Precipitation 0.00 in 0.13 in 3.22 in (1961)
Month to date precipitation 3.63 1.93  
Year to date precipitation 9.98 11.08  
Sea Level Pressure  
Sea Level Pressure 30.14 in    
Wind  
Wind Speed 8 mph (ENE)    
Max Wind Speed 15 mph    
Max Gust Speed 21 mph    
Visibility 10 miles    
Events      
T = Trace of Precipitation, MM = Missing Value Source: NWS Daily Summary

Daily Weather History Graph

Daily Weather History Graph

Search for Another Location

Airport or City:

Trip Planner

Search our weather history database for the weather conditions in past years. The results will help you decide how hot, cold, wet, or windy it might be!

Date:

Astronomy

May. 26, 2013 Rise Set
Actual Time 6:35 AM EDT 8:13 PM EDT
Civil Twilight 6:10 AM EDT 8:39 PM EDT
Nautical Twilight 5:39 AM EDT 9:10 PM EDT
Astronomical Twilight 5:07 AM EDT 9:42 PM EDT
Moon 10:02 PM EDT (5/26) 8:02 AM EDT (5/26)
Length of Visible Light 14h 29m
Length of Day
13h 37m
Waning Gibbous, 97% of the Moon is Illuminated
May 26
Waning Gibbous
May 31
Last Quarter
Jun 8
New
Jun 16
First Quarter
Jun 23
Full

Hourly Weather History & Observations

Time (EDT) Temp. Heat Index Dew Point Humidity Pressure Visibility Wind Dir Wind Speed Gust Speed Precip Events Conditions
12:53 AM 73.0 °F - 64.9 °F 76% 30.17 in 10.0 mi East 10.4 mph - N/A   Clear
1:53 AM 72.0 °F - 64.9 °F 78% 30.16 in 10.0 mi East 8.1 mph - N/A   Clear
2:53 AM 70.0 °F - 64.9 °F 84% 30.14 in 10.0 mi ENE 6.9 mph - N/A   Clear
3:53 AM 69.1 °F - 64.0 °F 84% 30.14 in 10.0 mi ENE 5.8 mph - N/A   Clear
4:53 AM 68.0 °F - 64.0 °F 87% 30.14 in 10.0 mi ENE 5.8 mph - N/A   Clear
5:53 AM 66.9 °F - 63.0 °F 87% 30.14 in 10.0 mi NE 5.8 mph - N/A   Clear
6:53 AM 66.9 °F - 62.1 °F 84% 30.14 in 10.0 mi NE 6.9 mph - N/A   Clear
7:53 AM 70.0 °F - 61.0 °F 73% 30.15 in 10.0 mi NE 5.8 mph - N/A   Clear
8:53 AM 73.9 °F - 61.0 °F 64% 30.18 in 10.0 mi ENE 9.2 mph - N/A   Clear
9:53 AM 78.1 °F - 61.0 °F 56% 30.19 in 10.0 mi ENE 9.2 mph - N/A   Clear
10:53 AM 80.1 °F 80.7 °F 59.0 °F 48% 30.19 in 10.0 mi East 9.2 mph - N/A   Clear
11:53 AM 82.9 °F 83.7 °F 62.1 °F 49% 30.18 in 10.0 mi East 6.9 mph - N/A   Clear
12:53 PM 84.0 °F 84.4 °F 61.0 °F 46% 30.17 in 10.0 mi East 10.4 mph 19.6 mph N/A   Clear
1:53 PM 86.0 °F 85.7 °F 60.1 °F 41% 30.15 in 10.0 mi Variable 6.9 mph - N/A   Partly Cloudy
2:53 PM 86.0 °F 86.1 °F 61.0 °F 43% 30.14 in 10.0 mi East 6.9 mph - N/A   Scattered Clouds
3:53 PM 88.0 °F 86.7 °F 57.0 °F 35% 30.12 in 10.0 mi ENE 5.8 mph - N/A   Partly Cloudy
4:53 PM 87.1 °F 86.1 °F 57.9 °F 37% 30.10 in 10.0 mi ENE 5.8 mph - N/A   Scattered Clouds
5:53 PM 86.0 °F 85.0 °F 57.9 °F 38% 30.09 in 10.0 mi East 9.2 mph - N/A   Clear
6:53 PM 84.0 °F 83.8 °F 59.0 °F 43% 30.09 in 10.0 mi East 8.1 mph - N/A   Clear
7:53 PM 81.0 °F 81.9 °F 62.1 °F 52% 30.11 in 10.0 mi East 10.4 mph 18.4 mph N/A   Clear
8:53 PM 79.0 °F - 62.1 °F 56% 30.12 in 10.0 mi East 9.2 mph - N/A   Clear
9:53 PM 77.0 °F - 63.0 °F 62% 30.13 in 10.0 mi East 10.4 mph - N/A   Clear
10:53 PM 75.9 °F - 64.0 °F 67% 30.16 in 10.0 mi East 10.4 mph - N/A   Clear
11:53 PM 73.9 °F - 63.0 °F 68% 30.17 in 10.0 mi East 10.4 mph - N/A   Clear